Location: Unspecified
(0.0000°N, 0.0000°E)
Time: 06:02:03
(UTC+00:00)

Hubble Space Telescope - Visible Passes

Search period start: 29 April 2016 00:00
Search period end: 09 May 2016 00:00
Orbit: 539 x 543 km, 28.5° (Epoch: 27 April)

Date Brightness Start Highest point End Pass type
(mag) Time Alt. Az. Time Alt. Az. Time Alt. Az.
05 May 3.0 19:15:14 10° S 19:16:15 13° S 19:16:15 13° S visible
06 May 2.2 19:05:01 10° SSW 19:07:56 22° SSE 19:07:56 22° SSE visible
07 May 1.7 18:55:00 10° SSW 18:58:42 30° SSE 18:59:46 26° ESE visible
08 May 1.2 18:45:07 10° SW 18:49:05 43° SSE 18:51:44 19° E visible
08 May 3.9 20:26:44 10° W 20:27:12 12° W 20:27:12 12° W visible
